[[{"header":{"parameterUnit":"m.s-1","parameterCategory":1,"la1":30.2991,"la2":30.254,"lo1":-89.0895,"lo2":-89.0444,"dy":0.0017,"dx":0.0017,"nx":28,"ny":28,"refTime":"2024-02-25T09:00:00:Z","depth":0,"parameterNumber":2,"parameterNumberName":"U-component_of_WINDS"},"data":[0,0,0,0,0,0,0,0,0,0,0,0,0,0,0,0,0,0,0,0,0,0,0,0,0,0,0,0,0,0,0,0,0,0,0,0,0,0,0,0,0,0,0,0,0,0,0,0,0,0,0,0,0,0,0,0,0,0,-1.6636,-1.6636,0,-1.6602,-1.6601,-1.6601,-1.6568,-1.6567,-1.6567,-1.6567,-1.653,-1.653,-1.6529,0,0,0,0,0,0,0,0,0,0,0,0,0,-1.6674,-1.6674,-1.6636,-1.6636,-1.6636,-1.6602,-1.6601,-1.6601,-1.6568,-1.6567,-1.6567,-1.6566,-1.653,-1.653,-1.6529,0,0,0,0,0,0,0,0,0,0,0,0,0,-1.665,-1.6673,-1.6636,-1.6615,-1.6613,-1.6602,-1.6601,-1.6601,-1.6568,-1.6567,-1.6567,-1.6566,-1.6531,-1.653,-1.6529,-1.6536,0,0,-1.6526,-1.6526,0,0,0,0,0,0,0,0,-1.6652,-1.6649,-1.6619,-1.6616,-1.6614,-1.6588,-1.6601,-1.6579,-1.6568,-1.6585,-1.6567,-1.6566,-1.655,-1.6548,-1.6542,-1.6535,-1.6533,-1.6526,-1.6526,-1.6525,-1.6525,0,0,0,0,0,0,0,-1.6653,-1.665,-1.6623,-1.6618,-1.6615,-1.6607,-1.6603,-1.6597,-1.6571,-1.6583,-1.6581,-1.6577,-1.6549,-1.6543,-1.6541,-1.6532,-1.6526,-1.6526,-1.6525,-1.6525,-1.6529,-1.653,0,0,0,0,0,0,-1.6658,-1.6652,-1.6624,-1.6622,-1.6632,-1.6607,-1.6602,-1.6597,-1.6571,-1.6567,-1.6578,-1.6576,-1.6545,-1.6542,-1.654,-1.6546,-1.6525,-1.6525,-1.6524,-1.6528,-1.6529,-1.653,0,0,0,0,0,0,-1.6659,-1.6656,-1.6625,-1.6636,-1.6632,-1.6607,-1.6601,-1.6597,-1.6591,-1.6567,-1.6563,-1.6577,-1.6545,-1.6541,-1.6537,-1.6544,-1.6524,-1.6523,-1.6528,-1.6529,-1.653,-1.6559,0,0,0,0,0,0,-1.6661,-1.6657,-1.6659,-1.6636,-1.6631,-1.6623,-1.6602,-1.6597,-1.659,-1.6587,-1.6565,-1.6561,-1.6544,-1.6539,-1.6537,-1.6543,-1.6523,-1.6527,-1.6528,-1.6529,-1.6557,-1.6561,-1.6564,0,0,0,0,0,-1.6662,-1.6669,-1.6659,-1.6656,-1.6634,-1.6624,-1.6621,-1.6601,-1.6591,-1.6593,-1.6578,-1.6562,-1.6545,-1.6539,-1.6536,-1.6542,-1.6526,-1.6528,-1.6529,-1.6556,-1.656,-1.6564,0,0,0,0,0,0,-1.6692,-1.6665,-1.6655,-1.6654,-1.6642,-1.6618,-1.662,-1.6606,-1.6596,-1.6593,-1.6569,-1.6565,-1.6564,-1.6553,-1.6547,-1.6548,-1.6533,-1.6534,-1.6555,-1.6559,-1.6562,-1.6564,-1.6522,0,0,0,0,0,-1.6699,-1.6693,-1.667,-1.6672,-1.6666,-1.6645,-1.664,-1.6626,-1.6611,-1.6606,-1.659,-1.6577,-1.6568,-1.6563,-1.6554,-1.6557,-1.6551,-1.656,-1.6563,-1.6566,-1.6566,-1.6567,-1.657,-1.6535,-1.6535,-1.6535,0,0,-1.6712,-1.6697,-1.6695,-1.6678,-1.6666,-1.6661,-1.664,-1.6635,-1.6631,-1.6605,-1.66,-1.6589,-1.6572,-1.6572,-1.6571,-1.6562,-1.6575,-1.6568,-1.657,-1.6569,-1.6568,-1.6572,-1.6575,-1.6536,-1.6535,-1.6535,0,0,-1.6734,-1.6722,-1.6722,-1.6712,-1.6695,-1.668,-1.6681,-1.666,-1.6651,-1.6646,-1.6627,-1.6622,-1.6608,-1.6597,-1.659,-1.6609,-1.6594,-1.6607,-1.6624,-1.6624,-1.6627,-1.6629,-1.6635,-1.6638,-1.6608,-1.6608,-1.6608,0,-1.6753,-1.6744,-1.6724,-1.672,-1.6713,-1.6691,-1.669,-1.6681,-1.6662,-1.6658,-1.665,-1.6632,-1.6619,-1.6616,-1.6621,-1.6616,-1.6615,-1.6608,-1.6628,-1.663,-1.6632,-1.6638,-1.664,-1.661,-1.6609,-1.6609,-1.6609,0,-1.6767,-1.6761,-1.6764,-1.6746,-1.674,-1.6738,-1.6718,-1.6714,-1.6701,-1.6688,-1.6684,-1.6668,-1.6656,-1.6654,-1.6642,-1.6649,-1.6644,-1.6633,-1.6617,-1.6637,-1.6642,-1.6644,-1.6612,-1.6611,-1.6611,-1.661,0,0,-1.6804,-1.6777,-1.6778,-1.677,-1.6751,-1.6746,-1.6744,-1.6732,-1.6728,-1.6717,-1.6714,-1.6704,-1.6693,-1.6685,-1.6671,-1.6672,-1.6687,-1.666,-1.6659,-1.6664,-1.6694,-1.6702,-1.6704,-1.6678,-1.6678,-1.6679,-1.6695,0,-1.6822,-1.6815,-1.6798,-1.6797,-1.6792,-1.6771,-1.6769,-1.6757,-1.6745,-1.6739,-1.6725,-1.6718,-1.6705,-1.67,-1.67,-1.6685,-1.6693,-1.6684,-1.6674,-1.6674,-1.6677,-1.6707,-1.6715,-1.6731,-1.6697,-1.6697,-1.6697,0,-1.684,-1.683,-1.6829,-1.681,-1.6807,-1.6805,-1.6793,-1.6788,-1.6774,-1.6765,-1.6757,-1.6742,-1.6739,-1.6726,-1.672,-1.6715,-1.671,-1.6703,-1.6703,-1.67,-1.6685,-1.6703,-1.6735,-1.6737,-1.67,-1.67,-1.6699,0,-1.6866,-1.6853,-1.685,-1.6844,-1.6822,-1.6822,-1.6813,-1.6798,-1.6793,-1.6783,-1.6778,-1.6768,-1.6762,-1.6755,-1.6738,-1.673,-1.6734,-1.672,-1.6726,-1.6726,-1.6726,-1.6726,-1.6756,-1.6726,-1.6726,-1.6726,-1.6726,0,-1.6886,-1.6886,-1.6861,-1.6859,-1.6859,-1.684,-1.6839,-1.6828,-1.6816,-1.6812,-1.6794,-1.6791,-1.6769,-1.6763,-1.675,-1.6747,-1.6745,-1.6737,-1.6734,-1.6738,-1.6739,-1.6733,-1.6731,-1.6726,-1.6726,-1.6726,-1.6726,0,-1.6914,-1.6898,-1.6893,-1.6874,-1.6869,-1.6869,-1.6852,-1.685,-1.6838,-1.6833,-1.683,-1.6811,-1.6803,-1.6786,-1.6774,-1.6765,-1.6765,-1.6759,-1.6769,-1.6767,-1.6773,-1.6773,-1.68,-1.6802,-1.6772,-1.6772,-1.6773,0,-1.6927,-1.6926,-1.6907,-1.6903,-1.6895,-1.6889,-1.6883,-1.6865,-1.6859,-1.6844,-1.6844,-1.6835,-1.6826,-1.6815,-1.6799,-1.679,-1.6783,-1.6793,-1.6781,-1.6786,-1.6782,-1.6781,-1.6781,-1.6795,-1.6796,-1.6796,-1.6796,0,-1.6952,-1.6944,-1.6936,-1.6926,-1.6919,-1.691,-1.69,-1.6898,-1.6878,-1.6873,-1.6865,-1.6858,-1.6846,-1.6837,-1.6825,-1.6816,-1.6803,-1.6801,-1.6801,-1.6805,-1.6811,-1.6807,-1.6775,-1.68,-1.6799,-1.6799,-1.6799,-1.6799,-1.6972,-1.697,-1.6956,-1.6948,-1.6939,-1.693,-1.6927,-1.6915,-1.6908,-1.6896,-1.6886,-1.6879,-1.6866,-1.6849,-1.6841,-1.6835,-1.6829,-1.683,-1.683,-1.683,-1.6832,-1.6813,-1.6834,-1.6833,-1.6833,-1.6833,-1.6833,0,-1.6994,-1.6985,-1.6978,-1.6964,-1.6958,-1.6947,-1.6936,-1.6932,-1.6925,-1.6915,-1.6907,-1.6898,-1.689,-1.6874,-1.6865,-1.6863,-1.6857,-1.6861,-1.686,-1.6858,-1.6839,-1.6839,-1.6866,-1.6866,-1.6866,-1.6866,-1.6866,-1.6866,-1.7005,-1.7001,-1.6992,-1.6984,-1.6975,-1.6967,-1.6962,-1.6954,-1.6945,-1.6936,-1.6929,-1.6919,-1.6907,-1.6896,-1.6888,-1.6884,-1.6881,-1.6887,-1.6881,-1.6863,-1.6859,-1.6856,-1.6856,-1.6887,-1.6887,-1.69,-1.69,-1.69]},{"header":{"parameterUnit":"m.s-1","parameterCategory":1,"la1":30.2991,"la2":30.254,"lo1":-89.0895,"lo2":-89.0444,"dy":0.0017,"dx":0.0017,"nx":28,"ny":28,"refTime":"2024-02-25T09:00:00:Z","depth":0,"parameterNumber":3,"parameterNumberName":"V-component_of_WINDS"},"data":[0,0,0,0,0,0,0,0,0,0,0,0,0,0,0,0,0,0,0,0,0,0,0,0,0,0,0,0,0,0,0,0,0,0,0,0,0,0,0,0,0,0,0,0,0,0,0,0,0,0,0,0,0,0,0,0,0,0,3.1944,3.1944,0,3.1951,3.1951,3.1951,3.2005,3.2006,3.2008,3.2009,3.2013,3.2012,3.2011,0,0,0,0,0,0,0,0,0,0,0,0,0,3.1977,3.1976,3.1944,3.1944,3.1944,3.1951,3.1951,3.1951,3.2005,3.2006,3.2008,3.201,3.2014,3.2012,3.2011,0,0,0,0,0,0,0,0,0,0,0,0,0,3.1971,3.1975,3.1944,3.1972,3.1974,3.195,3.1951,3.1951,3.2004,3.2007,3.2009,3.201,3.2014,3.2012,3.2011,3.196,0,0,3.2005,3.2005,0,0,0,0,0,0,0,0,3.1971,3.1969,3.1968,3.197,3.1973,3.1979,3.1964,3.1954,3.2004,3.1993,3.2009,3.2011,3.2,3.2,3.1996,3.196,3.196,3.2005,3.2004,3.2003,3.2003,0,0,0,0,0,0,0,3.1971,3.1969,3.1946,3.1967,3.1971,3.1984,3.1985,3.1962,3.1985,3.1994,3.1998,3.1998,3.2002,3.1998,3.1997,3.196,3.2005,3.2004,3.2003,3.2002,3.1885,3.1883,0,0,0,0,0,0,3.1968,3.1969,3.1946,3.1947,3.1977,3.1982,3.1983,3.1975,3.1985,3.1989,3.1997,3.2001,3.2,3.1999,3.1997,3.194,3.2004,3.2002,3.2001,3.1887,3.1884,3.1882,0,0,0,0,0,0,3.1969,3.1965,3.1946,3.1959,3.1958,3.1979,3.1969,3.1974,3.197,3.1987,3.1991,3.1988,3.2001,3.2,3.1969,3.1941,3.2001,3.2,3.1889,3.1886,3.1883,3.1824,0,0,0,0,0,0,3.1969,3.1965,3.1946,3.1958,3.1957,3.1918,3.1967,3.1973,3.1967,3.1973,3.1981,3.1984,3.2003,3.1972,3.1968,3.1939,3.1998,3.1892,3.1888,3.1884,3.1828,3.1819,3.1811,0,0,0,0,0,3.197,3.1928,3.1945,3.1942,3.1933,3.1916,3.1915,3.1938,3.1965,3.1946,3.1957,3.1984,3.1945,3.1968,3.1964,3.1935,3.1894,3.1889,3.1884,3.1832,3.1821,3.1811,0,0,0,0,0,0,3.191,3.193,3.1949,3.1909,3.1911,3.1925,3.1902,3.1925,3.1918,3.1924,3.1952,3.1954,3.1919,3.1924,3.195,3.1887,3.1924,3.1918,3.1886,3.1875,3.1866,3.1866,3.1997,0,0,0,0,0,3.1892,3.1877,3.1895,3.1858,3.1859,3.188,3.1873,3.1892,3.1894,3.1894,3.1903,3.1904,3.1893,3.1884,3.1874,3.1829,3.1833,3.1807,3.1799,3.1792,3.1786,3.1765,3.1755,3.1867,3.1867,3.1867,0,0,3.1855,3.1864,3.1852,3.1847,3.185,3.1834,3.188,3.186,3.1849,3.1891,3.1864,3.1871,3.1873,3.1837,3.1821,3.1839,3.1756,3.1786,3.178,3.1778,3.176,3.1749,3.174,3.1863,3.1864,3.1864,0,0,3.1779,3.1784,3.1756,3.1759,3.1764,3.1779,3.1772,3.1784,3.179,3.1764,3.1796,3.1782,3.1761,3.1762,3.176,3.1688,3.1713,3.1684,3.1638,3.1618,3.1609,3.1601,3.1577,3.1568,3.1678,3.1678,3.1678,0,3.1732,3.171,3.1737,3.1717,3.1714,3.1753,3.1725,3.1726,3.1727,3.1724,3.1745,3.1721,3.1725,3.169,3.1673,3.167,3.1663,3.1683,3.1608,3.1601,3.1594,3.1571,3.1562,3.1675,3.1675,3.1676,3.1676,0,3.1653,3.1637,3.1613,3.1615,3.1609,3.1584,3.1608,3.1599,3.1619,3.1631,3.1605,3.1612,3.1605,3.1598,3.1616,3.1566,3.1578,3.1603,3.164,3.1579,3.1559,3.155,3.167,3.1671,3.1672,3.1673,0,0,3.1538,3.1558,3.1548,3.1551,3.1561,3.1549,3.1526,3.1521,3.1514,3.1513,3.1496,3.1478,3.1503,3.15,3.1519,3.15,3.1445,3.1528,3.1529,3.1513,3.1393,3.1375,3.1364,3.1462,3.146,3.1459,3.1393,0,3.1466,3.143,3.1455,3.1415,3.1402,3.144,3.1421,3.1425,3.1437,3.1427,3.144,3.1428,3.146,3.1459,3.1442,3.1455,3.1421,3.146,3.1446,3.1445,3.1445,3.1353,3.1333,3.1271,3.1385,3.1384,3.1383,0,3.1378,3.1376,3.1335,3.135,3.1345,3.1328,3.1326,3.1316,3.1322,3.1332,3.1331,3.1355,3.1335,3.1371,3.1344,3.137,3.1366,3.1372,3.137,3.137,3.1411,3.1352,3.1252,3.1243,3.137,3.1371,3.1372,0,3.13,3.1287,3.1262,3.1263,3.1279,3.1266,3.1272,3.128,3.1276,3.1275,3.1273,3.1268,3.1266,3.1262,3.1285,3.1309,3.1255,3.1293,3.1264,3.1263,3.1251,3.1251,3.115,3.1246,3.1246,3.1247,3.1247,0,3.1218,3.1192,3.1228,3.1212,3.1184,3.1213,3.1185,3.1195,3.1202,3.1189,3.1222,3.1209,3.1239,3.1229,3.1246,3.1223,3.1221,3.1229,3.1234,3.1226,3.1226,3.1224,3.123,3.1244,3.1245,3.1245,3.1246,0,3.1126,3.1149,3.1124,3.1143,3.1147,3.1126,3.1142,3.1128,3.1143,3.1127,3.1124,3.1148,3.1138,3.1161,3.1154,3.1166,3.1132,3.1143,3.113,3.1134,3.1103,3.1106,3.0998,3.0986,3.1089,3.1088,3.1087,0,3.1073,3.1054,3.1072,3.1066,3.1071,3.1061,3.1058,3.1087,3.1082,3.1089,3.1075,3.1069,3.1065,3.1049,3.1065,3.106,3.1073,3.1035,3.1072,3.1066,3.1074,3.1075,3.1074,3.1027,3.1026,3.1025,3.1024,0,3.0976,3.099,3.0984,3.0984,3.098,3.098,3.0983,3.0976,3.1007,3.1,3.0992,3.099,3.0984,3.0978,3.0978,3.0984,3.1009,3.1013,3.1006,3.0998,3.0992,3.0997,3.111,3.1015,3.1016,3.1016,3.1017,3.1017,3.0903,3.0889,3.09,3.0894,3.09,3.0902,3.0891,3.0906,3.09,3.0899,3.0916,3.0904,3.0913,3.0915,3.0919,3.0911,3.0928,3.0917,3.0915,3.0912,3.0908,3.0993,3.0911,3.0911,3.0911,3.0911,3.0912,0,3.081,3.0819,3.0813,3.0818,3.0813,3.0839,3.0844,3.0838,3.0828,3.0834,3.0831,3.0823,3.0817,3.0834,3.0831,3.0821,3.0833,3.082,3.0821,3.0823,3.0892,3.0899,3.0811,3.0811,3.0811,3.0811,3.0811,3.0811,3.0761,3.0739,3.0753,3.0735,3.0745,3.0735,3.0736,3.0739,3.0744,3.0734,3.073,3.0742,3.0753,3.0751,3.0748,3.0753,3.0751,3.0734,3.0743,3.0808,3.0817,3.0827,3.0834,3.0733,3.0733,3.0675,3.0674,3.0674]}]]